This is the latest recevied weather packets stored in our database for station/object SA7NOA-14. If no packets are shown the sender has not sent any weather packets the latest 10 day(s).
| Time | Temp. | Humidity | Pressure | Rain* | Wind** | Luminosity | Snow |
|---|---|---|---|---|---|---|---|
| 1788406204 | 9.44° C | 86% | 1012.5 hPa | 0.51 mm | - | - | - |
| 1788405303 | 9.44° C | 86% | 1012.5 hPa | 0.51 mm | - | - | - |
| 1788404402 | 10° C | 86% | 1012.5 hPa | 0.51 mm | - | - | - |
| 1788403501 | 10° C | 86% | 1012.5 hPa | 0.51 mm | - | - | - |
| 1788402605 | 10° C | 83% | 1012.7 hPa | 0.51 mm | - | - | - |
| 1788377405 | 13.89° C | 77% | 1012.3 hPa | 0.51 mm | - | - | - |
| 1788376501 | 13.33° C | 77% | 1012.3 hPa | 0.51 mm | - | - | - |
| 1788373804 | 13.89° C | 77% | 1012.3 hPa | - | - | - | - |
| 1788372903 | 14.44° C | 77% | 1012.3 hPa | - | - | - | - |
| 1788372002 | 15.56° C | 77% | 1012.3 hPa | - | - | - | - |
| 1788370205 | 15.56° C | 83% | 1011.6 hPa | - | - | - | - |
| 1788369304 | 15.56° C | 83% | 1011.6 hPa | - | - | - | - |
| 1788368403 | 16.11° C | 83% | 1011.6 hPa | - | - | - | - |
| 1788366601 | 16.67° C | 76% | 1012 hPa | - | - | - | - |
| 1788363003 | 17.78° C | 76% | 1012.2 hPa | - | - | - | - |
| 1788362102 | 18.33° C | 76% | 1012.2 hPa | - | - | - | - |
| 1788361201 | 18.33° C | 82% | 1012.5 hPa | - | - | - | - |
| 1788358503 | 17.22° C | 74% | 1012.7 hPa | - | - | - | - |
| 1788356701 | 19.44° C | 74% | 1012.7 hPa | - | - | - | - |
| 1788355805 | 18.89° C | 78% | 1012.8 hPa | - | - | - | - |
| 1788354904 | 18.89° C | 78% | 1012.8 hPa | - | - | - | - |
| 1788354003 | 18.89° C | 78% | 1012.8 hPa | - | - | - | - |
| 1788352202 | 17.78° C | 78% | 1013.2 hPa | - | - | - | - |
| 1788351301 | 15.56° C | 78% | 1013.2 hPa | - | - | - | - |
| 1788350405 | 16.67° C | 78% | 1013.2 hPa | - | - | - | - |
* Rain latest 24 hours (hover to see other rain measurements)
** Current wind speed in m/s (hover to see current wind gust speed)